Weather History for KOGA - April, 2013

Change the Weather History Date:

Monday, April 29, 2013

  Actual Average Record
Temperature  
Mean Temperature 66 °F -  
Max Temperature 84 °F 67 °F 89 °F (1987)
Min Temperature 47 °F 38 °F 21 °F (1998)
Growing Degree Days 16 (Base 50)    
Moisture  
Dew Point 33 °F    
Average Humidity 34    
Maximum Humidity 65    
Minimum Humidity 12    
Precipitation  
Precipitation 0.00 in - - ()
Sea Level Pressure  
Sea Level Pressure 29.70 in    
Wind  
Wind Speed 7 mph (SW)    
Max Wind Speed 22 mph    
Max Gust Speed 32 mph    
Visibility 10 miles    
Events      
Averages and records for this station are not official NWS values.
T = Trace of Precipitation, MM = Missing Value Source: NWS Daily Summary

Daily Weather History Graph

Daily Weather History Graph

Search for Another Location

Airport or City:

Trip Planner

Search our weather history database for the weather conditions in past years. The results will help you decide how hot, cold, wet, or windy it might be!

Date:

Astronomy

Apr. 29, 2013 Rise Set
Actual Time 5:47 AM MDT 7:42 PM MDT
Civil Twilight 5:17 AM MDT 8:12 PM MDT
Nautical Twilight 4:41 AM MDT 8:48 PM MDT
Astronomical Twilight 4:01 AM MDT 9:27 PM MDT
Moon No Moon Rise 9:09 AM MDT (4/29)
Length of Visible Light 14h 54m
Length of Day
13h 55m
Waning Gibbous, 79% of the Moon is Illuminated
Apr 29
Waning Gibbous
May 2
Last Quarter
May 9
New
May 17
First Quarter
May 24
Full

Hourly Weather History & Observations

Time (MDT) Temp. Dew Point Humidity Pressure Visibility Wind Dir Wind Speed Gust Speed Precip Events Conditions
12:15 AM 56.1 °F 32.5 °F 41% 29.88 in 10.0 mi ENE 4.6 mph - N/A   Clear
12:35 AM 56.5 °F 32.4 °F 40% 29.89 in 10.0 mi East 3.5 mph - N/A   Clear
12:55 AM 56.3 °F 33.1 °F 41% 29.90 in 10.0 mi Calm Calm - N/A   Scattered Clouds
1:15 AM 52.7 °F 33.8 °F 49% 29.90 in 10.0 mi NW 3.5 mph - N/A   Scattered Clouds
1:35 AM 53.8 °F 34.0 °F 47% 29.91 in 10.0 mi WSW 4.6 mph - N/A   Scattered Clouds
1:55 AM 54.5 °F 34.3 °F 47% 29.88 in 10.0 mi ESE 4.6 mph - N/A   Clear
2:15 AM 53.4 °F 34.5 °F 49% 29.88 in 10.0 mi NE 4.6 mph - N/A   Clear
2:35 AM 52.9 °F 34.0 °F 49% 29.88 in 10.0 mi North 4.6 mph - N/A   Clear
2:55 AM 51.8 °F 33.8 °F 50% 29.88 in 10.0 mi NE 8.1 mph - N/A   Clear
3:15 AM 52.3 °F 33.8 °F 49% 29.88 in 10.0 mi NNE 4.6 mph - N/A   Clear
3:35 AM 51.6 °F 34.2 °F 51% 29.89 in 10.0 mi West 5.8 mph - N/A   Clear
3:55 AM 51.3 °F 35.4 °F 55% 29.88 in 10.0 mi South 6.9 mph - N/A   Scattered Clouds
4:15 AM 50.7 °F 36.0 °F 57% 29.89 in 10.0 mi NW 8.1 mph - N/A   Scattered Clouds
4:35 AM 50.7 °F 35.8 °F 57% 29.87 in 10.0 mi Calm Calm - N/A   Clear
4:55 AM 50.7 °F 35.6 °F 56% 29.85 in 10.0 mi East 3.5 mph - N/A   Clear
5:15 AM 50.0 °F 35.6 °F 58% 29.84 in 10.0 mi NE 5.8 mph - N/A   Clear
5:35 AM 49.5 °F 35.1 °F 58% 29.83 in 10.0 mi NNE 4.6 mph - N/A   Clear
5:55 AM 48.9 °F 34.5 °F 58% 29.84 in 10.0 mi East 3.5 mph - N/A   Clear
6:15 AM 47.3 °F 36.0 °F 65% 29.84 in 10.0 mi East 3.5 mph - N/A   Clear
6:35 AM 47.7 °F 36.0 °F 64% 29.84 in 10.0 mi Calm Calm - N/A   Clear
6:55 AM 48.7 °F 36.5 °F 63% 29.83 in 10.0 mi Calm Calm - N/A   Clear
7:15 AM 51.8 °F 35.8 °F 54% 29.83 in 10.0 mi ENE 4.6 mph - N/A   Clear
7:35 AM 54.3 °F 36.5 °F 51% 29.82 in 10.0 mi East 6.9 mph - N/A   Clear
7:55 AM 54.9 °F 36.5 °F 50% 29.82 in 10.0 mi East 9.2 mph - N/A   Clear
8:15 AM 55.9 °F 36.9 °F 49% 29.81 in 10.0 mi ESE 4.6 mph - N/A   Clear
8:35 AM 57.9 °F 37.2 °F 46% 29.81 in 10.0 mi SE 4.6 mph - N/A   Clear
8:55 AM 60.1 °F 37.2 °F 43% 29.80 in 10.0 mi SE 6.9 mph - N/A   Clear
9:15 AM 62.8 °F 36.1 °F 37% 29.79 in 10.0 mi South 5.8 mph - N/A   Clear
9:35 AM 64.9 °F 36.1 °F 34% 29.78 in 10.0 mi South 10.4 mph - N/A   Clear
9:55 AM 66.2 °F 36.0 °F 33% 29.78 in 10.0 mi SSW 12.7 mph - N/A   Clear
10:15 AM 68.0 °F 36.1 °F 31% 29.77 in 10.0 mi SSW 9.2 mph - N/A   Clear
10:35 AM 70.0 °F 36.0 °F 29% 29.76 in 10.0 mi SSW 12.7 mph 16.1 mph N/A   Clear
10:55 AM 71.4 °F 36.3 °F 28% 29.76 in 10.0 mi SSW 12.7 mph 17.3 mph N/A   Clear
11:15 AM 72.9 °F 36.5 °F 27% 29.74 in 10.0 mi South 10.4 mph 17.3 mph N/A   Clear
11:35 AM 74.8 °F 36.7 °F 25% 29.73 in 10.0 mi South 10.4 mph 16.1 mph N/A   Clear
11:55 AM 75.2 °F 36.3 °F 24% 29.72 in 10.0 mi South 8.1 mph 19.6 mph N/A   Clear
12:15 PM 76.1 °F 36.0 °F 23% 29.71 in 10.0 mi SW 9.2 mph - N/A   Clear
12:35 PM 78.1 °F 35.2 °F 21% 29.69 in 10.0 mi SSW 12.7 mph 19.6 mph N/A   Clear
12:55 PM 79.5 °F 34.2 °F 19% 29.68 in 10.0 mi SSW 9.2 mph 18.4 mph N/A   Clear
1:15 PM 80.8 °F 33.3 °F 18% 29.66 in 10.0 mi SW 18.4 mph 24.2 mph N/A   Clear
1:35 PM 80.1 °F 31.5 °F 17% 29.65 in 10.0 mi WSW 17.3 mph 24.2 mph N/A   Scattered Clouds
1:55 PM 83.1 °F 29.8 °F 14% 29.64 in 10.0 mi WSW 17.3 mph 24.2 mph N/A   Scattered Clouds
2:15 PM 83.3 °F 29.7 °F 14% 29.62 in 10.0 mi WSW 13.8 mph 28.8 mph N/A   Scattered Clouds
2:35 PM 83.8 °F 29.7 °F 14% 29.61 in 10.0 mi WSW 16.1 mph 27.6 mph N/A   Scattered Clouds
2:55 PM 83.8 °F 30.4 °F 14% 29.60 in 10.0 mi SSW 18.4 mph 32.2 mph N/A   Clear
3:15 PM 83.1 °F 30.0 °F 15% 29.59 in 10.0 mi SW 12.7 mph 21.9 mph N/A   Clear
3:35 PM 82.6 °F 30.0 °F 15% 29.57 in 10.0 mi SSW 13.8 mph 25.3 mph N/A   Scattered Clouds
3:55 PM 83.3 °F 29.5 °F 14% 29.55 in 10.0 mi WSW 17.3 mph 21.9 mph N/A   Scattered Clouds
4:15 PM 83.5 °F 29.5 °F 14% 29.55 in 10.0 mi SW 20.7 mph 29.9 mph N/A   Scattered Clouds
4:35 PM 82.9 °F 29.3 °F 14% 29.54 in 10.0 mi SW 21.9 mph 26.5 mph N/A   Scattered Clouds
4:55 PM 84.4 °F 27.7 °F 13% 29.52 in 10.0 mi WSW 17.3 mph 25.3 mph N/A   Clear
5:15 PM 84.4 °F 26.8 °F 12% 29.53 in 10.0 mi WSW 15.0 mph - N/A   Clear
5:35 PM 82.6 °F 25.9 °F 13% 29.52 in 10.0 mi WSW 16.1 mph 23.0 mph N/A   Clear
5:55 PM 82.6 °F 25.9 °F 13% 29.53 in 10.0 mi WSW 13.8 mph - N/A   Clear
6:15 PM 81.9 °F 26.6 °F 13% 29.52 in 10.0 mi SW 8.1 mph - N/A   Clear
6:35 PM 81.1 °F 27.1 °F 14% 29.52 in 10.0 mi WSW 9.2 mph - N/A   Clear
6:55 PM 79.5 °F 26.2 °F 14% 29.51 in 10.0 mi WSW 5.8 mph - N/A   Clear
7:15 PM 76.8 °F 27.0 °F 16% 29.51 in 10.0 mi SW 5.8 mph - N/A   Clear
7:35 PM 72.3 °F 27.9 °F 19% 29.51 in 10.0 mi WSW 3.5 mph - N/A   Clear
7:55 PM 68.2 °F 31.1 °F 25% 29.51 in 10.0 mi West 4.6 mph - N/A   Clear
8:15 PM 65.3 °F 29.1 °F 26% 29.52 in 10.0 mi West 5.8 mph - N/A   Clear
8:35 PM 64.6 °F 29.3 °F 27% 29.52 in 10.0 mi West 3.5 mph - N/A   Clear
8:55 PM 64.4 °F 30.0 °F 28% 29.52 in 10.0 mi Calm Calm - N/A   Clear
9:35 PM 60.8 °F 32.2 °F 34% 29.52 in 10.0 mi Calm Calm - N/A   Clear
9:55 PM 60.1 °F 31.1 °F 33% 29.52 in 10.0 mi Calm Calm - N/A   Clear
10:15 PM 58.1 °F 31.1 °F 36% 29.52 in 10.0 mi West 3.5 mph - N/A   Clear
10:35 PM 56.3 °F 31.8 °F 39% 29.52 in 10.0 mi SW 3.5 mph - N/A   Clear
10:55 PM 55.2 °F 33.1 °F 43% 29.52 in 10.0 mi WSW 4.6 mph - N/A   Clear
11:15 PM 53.2 °F 33.4 °F 47% 29.52 in 10.0 mi West 3.5 mph - N/A   Clear
11:35 PM 54.7 °F 33.4 °F 45% 29.53 in 10.0 mi WSW 4.6 mph - N/A   Clear
11:55 PM 55.4 °F 35.6 °F 47% 29.53 in 10.0 mi Calm Calm - N/A   Clear